Tracking 30298 objects as of 27-Apr-2025
HD Live streaming from Space Station
objects crossing your sky now

SATCOM 3 DEB

Track SATCOM 3 DEB now!


NORAD ID: 32984
Int'l Code: 1979-101K
Perigee: 8,287.4 km
Apogee: 35,513.1 km
Inclination: 9.1 °
Period: 788.5 minutes
Semi major axis: 28271 km
RCS: 0.003 m2 (small)
Launch date: December 7, 1979
Source: United States (US)
Launch site: AIR FORCE EASTERN TEST RANGE (AFETR)

Note: This is SATELLITE DEBRIS
Your satellite tracking list
Your tracking list is empty




NASA's NSSDC Master Catalog

Two Line Element Set (TLE):
1 32984U 79101K   25116.32751255 -.00000030  00000-0  00000-0 0  9993
2 32984   9.0840 115.1036 4815101  35.3770  26.3144  1.82635647 82069
Source of the keplerian elements: AFSPC